• In Uzbekistan
  • List of Countries
  • For 7 days
  • Water Temperature
  • Satellite Maps
  • Weather Map
  • Weather Widgets
  • user-avatar
    Login

    Hourly Weather Berat

    Today, 13 December, Wednesday

    Time Temperature Precipitation Wind Pressure Humidity
    00:00 +10°C° 0 mm 4 mps 749 mmHg 91%
    01:00 +11°C° 0 mm 3 mps 749 mmHg 92%
    02:00 +10°C° 0 mm 4 mps 749 mmHg 92%
    03:00 +10°C° 0 mm 4 mps 748 mmHg 92%
    04:00 +10°C° 0 mm 4 mps 748 mmHg 92%
    05:00 +10°C° 0 mm 4 mps 748 mmHg 92%
    06:00 +10°C° 0 mm 4 mps 748 mmHg 92%
    07:00 +10°C° 0 mm 4 mps 749 mmHg 92%
    08:00 +11°C° 0 mm 4 mps 749 mmHg 88%
    09:00 +12°C° 0 mm 4 mps 749 mmHg 84%
    10:00 +14°C° 0 mm 4 mps 749 mmHg 81%
    11:00 +14°C° 0 mm 4 mps 748 mmHg 78%
    12:00 +15°C° 0 mm 5 mps 748 mmHg 75%
    13:00 +16°C° 0 mm 5 mps 747 mmHg 72%
    14:00 +15°C° 0 mm 5 mps 747 mmHg 76%
    15:00 +14°C° 0 mm 4 mps 747 mmHg 81%
    16:00 +13°C° 0 mm 4 mps 746 mmHg 85%
    17:00 +13°C° 0.2 mm 4 mps 746 mmHg 87%
    18:00 +12°C° 0.2 mm 4 mps 746 mmHg 88%
    19:00 +12°C° 0.2 mm 4 mps 746 mmHg 90%
    20:00 +12°C° 1.1 mm 4 mps 746 mmHg 91%
    21:00 +12°C° 1.1 mm 4 mps 746 mmHg 93%
    22:00 +12°C° 1.1 mm 4 mps 746 mmHg 94%
    23:00 +12°C° 1.2 mm 4 mps 746 mmHg 93%

    Tomorrow, 14 December, Thursday

    Time Temperature Precipitation Wind Pressure Humidity
    00:00 +12°C° 1.2 mm 3 mps 745 mmHg 93%
    01:00 +11°C° 1.2 mm 3 mps 745 mmHg 92%
    02:00 +11°C° 0.3 mm 3 mps 745 mmHg 92%
    03:00 +11°C° 0.3 mm 3 mps 745 mmHg 92%
    04:00 +10°C° 0.3 mm 2 mps 745 mmHg 93%
    05:00 +10°C° 0.1 mm 2 mps 745 mmHg 92%
    06:00 +10°C° 0.1 mm 2 mps 745 mmHg 92%
    07:00 +10°C° 0.1 mm 2 mps 746 mmHg 91%
    08:00 +10°C° 0 mm 2 mps 746 mmHg 85%
    09:00 +12°C° 0 mm 2 mps 746 mmHg 78%
    10:00 +12°C° 0 mm 2 mps 746 mmHg 72%
    11:00 +13°C° 0 mm 2 mps 746 mmHg 68%
    12:00 +13°C° 0 mm 2 mps 746 mmHg 63%
    13:00 +14°C° 0 mm 2 mps 746 mmHg 59%
    14:00 +13°C° 0 mm 2 mps 746 mmHg 63%
    15:00 +12°C° 0 mm 2 mps 746 mmHg 67%
    16:00 +10°C° 0 mm 2 mps 746 mmHg 72%
    17:00 +10°C° 0 mm 2 mps 746 mmHg 74%
    18:00 +9°C° 0 mm 2 mps 746 mmHg 76%
    19:00 +9°C° 0 mm 2 mps 746 mmHg 78%
    20:00 +9°C° 0 mm 3 mps 746 mmHg 79%
    21:00 +8°C° 0 mm 3 mps 746 mmHg 80%
    22:00 +8°C° 0 mm 3 mps 746 mmHg 81%
    23:00 +8°C° 0 mm 3 mps 746 mmHg 82%

    Day after tomorrow, 15 December, Friday

    Time Temperature Precipitation Wind Pressure Humidity
    00:00 +8°C° 0 mm 3 mps 746 mmHg 82%
    01:00 +8°C° 0 mm 3 mps 746 mmHg 82%
    02:00 +8°C° 0 mm 3 mps 745 mmHg 81%
    03:00 +8°C° 0 mm 3 mps 745 mmHg 80%
    04:00 +8°C° 0 mm 3 mps 745 mmHg 79%
    05:00 +8°C° 0 mm 3 mps 745 mmHg 79%
    06:00 +7°C° 0 mm 4 mps 745 mmHg 79%
    07:00 +7°C° 0 mm 4 mps 745 mmHg 79%
    08:00 +8°C° 0 mm 4 mps 745 mmHg 77%
    09:00 +11°C° 0 mm 4 mps 744 mmHg 74%
    10:00 +13°C° 0 mm 4 mps 744 mmHg 72%
    11:00 +13°C° 0 mm 5 mps 744 mmHg 72%
    12:00 +14°C° 0 mm 5 mps 743 mmHg 72%
    13:00 +15°C° 0 mm 5 mps 743 mmHg 72%
    14:00 +14°C° 0 mm 5 mps 743 mmHg 76%
    15:00 +13°C° 0 mm 5 mps 742 mmHg 80%
    16:00 +12°C° 0 mm 5 mps 742 mmHg 85%
    17:00 +12°C° 0 mm 5 mps 742 mmHg 86%
    18:00 +10°C° 0 mm 5 mps 742 mmHg 88%
    19:00 +10°C° 0 mm 6 mps 742 mmHg 89%
    20:00 +10°C° 0.1 mm 6 mps 742 mmHg 89%
    21:00 +10°C° 0.1 mm 6 mps 742 mmHg 89%
    22:00 +10°C° 0.1 mm 5 mps 742 mmHg 90%
    23:00 +10°C° 0.1 mm 5 mps 742 mmHg 90%

    16 December, Saturday

    Time Temperature Precipitation Wind Pressure Humidity
    00:00 +10°C° 0.1 mm 5 mps 742 mmHg 90%
    01:00 +10°C° 0.1 mm 5 mps 741 mmHg 90%
    02:00 +10°C° 0 mm 5 mps 741 mmHg 91%
    03:00 +10°C° 0 mm 5 mps 741 mmHg 91%
    04:00 +10°C° 0 mm 5 mps 740 mmHg 91%
    05:00 +10°C° 0 mm 6 mps 740 mmHg 90%
    06:00 +10°C° 0 mm 6 mps 740 mmHg 90%
    07:00 +11°C° 0 mm 6 mps 740 mmHg 90%
    08:00 +13°C° 0 mm 6 mps 740 mmHg 86%
    09:00 +14°C° 0 mm 6 mps 740 mmHg 81%
    10:00 +15°C° 0 mm 7 mps 739 mmHg 77%
    11:00 +15°C° 0.4 mm 6 mps 739 mmHg 77%
    12:00 +14°C° 0.4 mm 6 mps 739 mmHg 78%
    13:00 +14°C° 0.4 mm 6 mps 738 mmHg 78%
    14:00 +13°C° 1.9 mm 5 mps 738 mmHg 83%
    15:00 +13°C° 1.9 mm 4 mps 738 mmHg 88%
    16:00 +12°C° 1.9 mm 3 mps 737 mmHg 92%
    17:00 +12°C° 3.4 mm 2 mps 737 mmHg 93%
    18:00 +12°C° 3.4 mm 2 mps 737 mmHg 93%
    19:00 +10°C° 3.4 mm 2 mps 737 mmHg 94%
    20:00 +10°C° 3.2 mm 2 mps 736 mmHg 93%
    21:00 +10°C° 3.2 mm 2 mps 736 mmHg 93%
    22:00 +10°C° 3.2 mm 2 mps 736 mmHg 93%
    23:00 +10°C° 2.3 mm 2 mps 736 mmHg 94%

    17 December, Sunday

    Time Temperature Precipitation Wind Pressure Humidity
    00:00 +10°C° 2.3 mm 3 mps 736 mmHg 95%
    01:00 +9°C° 2.3 mm 3 mps 736 mmHg 96%
    02:00 +9°C° 0.8 mm 3 mps 736 mmHg 96%
    03:00 +9°C° 0.8 mm 3 mps 737 mmHg 95%
    04:00 +9°C° 0.8 mm 3 mps 737 mmHg 95%
    05:00 +9°C° 0.1 mm 2 mps 738 mmHg 94%
    06:00 +8°C° 0.1 mm 2 mps 739 mmHg 93%
    07:00 +8°C° 0.1 mm 2 mps 740 mmHg 93%
    08:00 +9°C° 0.2 mm 2 mps 741 mmHg 86%
    09:00 +9°C° 0.2 mm 2 mps 741 mmHg 80%
    10:00 +10°C° 0.2 mm 2 mps 742 mmHg 74%
    11:00 +10°C° 0.3 mm 2 mps 742 mmHg 72%
    12:00 +12°C° 0.3 mm 2 mps 742 mmHg 70%
    13:00 +11°C° 0.3 mm 3 mps 743 mmHg 68%
    14:00 +10°C° 0.3 mm 2 mps 743 mmHg 72%
    15:00 +9°C° 0.3 mm 2 mps 743 mmHg 76%
    16:00 +10°C° 0.3 mm 1 mps 744 mmHg 81%
    17:00 +9°C° 0.2 mm 1 mps 744 mmHg 83%
    18:00 +9°C° 0.2 mm 1 mps 745 mmHg 84%
    19:00 +8°C° 0.2 mm 1 mps 746 mmHg 86%
    20:00 +8°C° 0.1 mm 1 mps 746 mmHg 86%
    21:00 +7°C° 0.1 mm 2 mps 747 mmHg 86%
    22:00 +6°C° 0.1 mm 2 mps 747 mmHg 86%
    23:00 +6°C° 0.1 mm 2 mps 747 mmHg 86%

    18 December, Monday

    Time Temperature Precipitation Wind Pressure Humidity
    00:00 +6°C° 0.1 mm 2 mps 748 mmHg 86%
    01:00 +6°C° 0.1 mm 2 mps 748 mmHg 85%
    02:00 +6°C° 0.2 mm 2 mps 748 mmHg 84%
    03:00 +6°C° 0.2 mm 2 mps 748 mmHg 83%
    04:00 +6°C° 0.2 mm 2 mps 748 mmHg 82%
    05:00 +5°C° 0.1 mm 2 mps 748 mmHg 82%
    06:00 +5°C° 0.1 mm 2 mps 748 mmHg 82%
    07:00 +5°C° 0.1 mm 2 mps 749 mmHg 81%
    08:00 +6°C° 0 mm 2 mps 749 mmHg 77%
    09:00 +6°C° 0 mm 2 mps 749 mmHg 73%
    10:00 +7°C° 0 mm 2 mps 749 mmHg 70%
    11:00 +8°C° 0 mm 2 mps 749 mmHg 68%
    12:00 +8°C° 0 mm 2 mps 749 mmHg 67%
    13:00 +8°C° 0 mm 2 mps 748 mmHg 66%
    14:00 +8°C° 0.1 mm 2 mps 748 mmHg 69%
    15:00 +7°C° 0.1 mm 2 mps 748 mmHg 73%
    16:00 +7°C° 0.1 mm 3 mps 748 mmHg 76%
    17:00 +6°C° 0.1 mm 2 mps 748 mmHg 78%
    18:00 +6°C° 0.1 mm 2 mps 749 mmHg 80%
    19:00 +5°C° 0.1 mm 2 mps 749 mmHg 82%
    20:00 +5°C° 0 mm 2 mps 749 mmHg 82%
    21:00 +4°C° 0 mm 2 mps 749 mmHg 83%
    22:00 +4°C° 0 mm 2 mps 749 mmHg 83%
    23:00 +4°C° 0 mm 2 mps 749 mmHg 83%
    Show more